This is the latest recevied weather packets stored in our database for station/object HS2LXA-WX. If no packets are shown the sender has not sent any weather packets the latest 10 day(s).
| Time | Temp. | Humidity | Pressure | Rain* | Wind** | Luminosity | Snow |
|---|---|---|---|---|---|---|---|
| 1777562328 | 31.67° C | 71% | 1013.1 hPa | 0 mm | - | - | - |
| 1777561724 | 31.11° C | 73% | 1013.1 hPa | 0 mm | - | - | - |
| 1777561120 | 30.56° C | 74% | 1013.1 hPa | 0 mm | - | - | - |
| 1777560515 | 30.56° C | 74% | 1013.2 hPa | 0 mm | - | - | - |
| 1777559911 | 30.56° C | 74% | 1013.1 hPa | 0 mm | - | - | - |
| 1777559306 | 30.56° C | 73% | 1013.1 hPa | 0 mm | - | - | - |
| 1777558717 | 30.56° C | 74% | 1013.2 hPa | 0 mm | - | - | - |
| 1777558101 | 31.11° C | 74% | 1013.2 hPa | 0 mm | - | - | - |
| 1777557497 | 31.11° C | 72% | 1013.1 hPa | 0 mm | - | - | - |
| 1777556895 | 30.56° C | 75% | 1013.1 hPa | 0 mm | - | - | - |
| 1777556290 | 31.11° C | 75% | 1013.1 hPa | 0 mm | - | - | - |
| 1777555687 | 31.11° C | 71% | 1013.2 hPa | 0 mm | - | - | - |
| 1777555083 | 31.67° C | 70% | 1013.2 hPa | 0 mm | - | - | - |
| 1777554479 | 31.67° C | 71% | 1013.1 hPa | 0 mm | - | - | - |
| 1777553875 | 31.67° C | 71% | 1013.1 hPa | 0 mm | - | - | - |
| 1777553270 | 31.67° C | 71% | 1013.2 hPa | 0 mm | - | - | - |
| 1777552666 | 31.67° C | 71% | 1013.1 hPa | 0 mm | - | - | - |
| 1777552061 | 31.67° C | 72% | 1013.2 hPa | 0 mm | - | - | - |
| 1777551457 | 31.67° C | 72% | 1013.2 hPa | 0 mm | - | - | - |
| 1777550852 | 31.67° C | 71% | 1013.2 hPa | 0 mm | - | - | - |
| 1777550248 | 31.67° C | 69% | 1013.1 hPa | 0 mm | - | - | - |
| 1777549644 | 32.22° C | 68% | 1013.1 hPa | 0 mm | - | - | - |
| 1777549039 | 32.22° C | 68% | 1013.1 hPa | 0 mm | - | - | - |
| 1777548435 | 32.22° C | 68% | 1013.2 hPa | 0 mm | - | - | - |
| 1777547831 | 32.22° C | 68% | 1013.1 hPa | 0 mm | - | - | - |
* Rain latest hour (hover to see other rain measurements)
** Current wind speed in m/s (hover to see current wind gust speed)